Location: Bukit Nyuki
(2.5885°N, 113.7476°E)
Time: 17:07:04
(UTC+00:00)

Meteor 1-4 Rocket - Pass Details

Date: 18 May 2021
Orbit: 447 x 499 km, 81.2° (Epoch: 20 June)

Event Time Altitude Azimuth Distance (km) Brightness Sun altitude
Rises 21:44:10 0° 335° (NNW) 2,524 6.2 -7.9°
Reaches altitude 10° 21:46:33 10° 321° (NW) 1,638 5.1 -7.3°
Maximum altitude 21:49:29 24° 266° (W) 1,017 3.6 -6.6°
Drops below altitude 10° 21:52:23 10° 210° (SSW) 1,618 4.8 -6.0°
Sets 21:54:43 0° 196° (SSW) 2,485 5.8 -5.4°
